Starlink 4475

operational
NORAD ID: 53545 Int'l Des: 2022-101 Owner: SPXS Country: US Constellation: starlink
LEOCIRCULAR

关于 Starlink 4475

正在加载描述...

实时位置

正在加载3D地球...

即将过境

高度历史

Altitude vs Time

uPlot chart will show altitude changes over time

两行轨道根数

1 53545U 22101U 25257.36842077 .00002006 00000-0 14404-3 0 9990
2 53545 53.2164 135.6583 0001309 87.4412 272.6730 15.08850609170372
Epoch: Sep 14, 2025 • Age: 23 hours

当前状态

高度 542.1 km
速度 7.60 km/s
星下点 37.82°N, 166.51°E
发射日期 Aug 19, 2022
运行时间 3 years
类型 internet

技术详情

分类 Payload
质量 300.00 kg
干质量 290.00 kg
总质量 300.00 kg
长度 0.20 m
直径 2.80 m
跨度 9.00 m
形状 Box + pan
制造商 SPXS
平台类型 Starlink
阶段状态 In Orbit
所有者/国家 SPXS/US

大型星座

Loading constellations...